TimeCST,TemperatureF,Dew PointF,Humidity,Sea Level PressureIn,VisibilityMPH,Wind Direction,Wind SpeedMPH,Gust SpeedMPH,PrecipitationIn,Events,Conditions,WindDirDegrees,DateUTC
12:10 AM,46.4,46.4,100,29.79,3.0,SE,20.7,25.3,0.00,,Overcast,140,2013-03-09 06:10:00
12:19 AM,46.4,46.4,100,29.78,2.0,SE,15.0,25.3,0.00,Rain,Light Rain,140,2013-03-09 06:19:00
12:29 AM,46.4,46.4,100,29.77,1.8,SE,15.0,-,0.01,Rain,Light Rain,130,2013-03-09 06:29:00
12:41 AM,46.4,46.4,100,29.78,2.0,SE,15.0,24.2,0.01,Rain,Light Rain,140,2013-03-09 06:41:00
12:53 AM,46.9,46.0,97,29.78,1.8,SE,16.1,23.0,0.01,Rain,Light Rain,140,2013-03-09 06:53:00
1:20 AM,46.4,44.6,93,29.76,2.0,SE,15.0,21.9,0.00,Rain,Light Rain,140,2013-03-09 07:20:00
1:53 AM,46.0,45.0,96,29.75,2.5,SSE,12.7,23.0,0.01,,Overcast,150,2013-03-09 07:53:00
2:41 AM,46.4,44.6,93,29.71,3.0,SSE,13.8,20.7,N/A,,Overcast,150,2013-03-09 08:41:00
2:53 AM,46.0,46.0,100,29.71,3.0,SSE,12.7,-,N/A,,Overcast,160,2013-03-09 08:53:00
3:00 AM,46.4,46.4,100,29.70,2.5,SSE,12.7,18.4,N/A,,Overcast,150,2013-03-09 09:00:00
3:53 AM,46.9,46.0,97,29.67,1.8,SSE,15.0,21.9,0.00,Rain,Light Rain,160,2013-03-09 09:53:00
4:22 AM,48.2,46.4,93,29.67,2.0,SSE,15.0,23.0,N/A,,Overcast,160,2013-03-09 10:22:00
4:53 AM,48.0,46.9,96,29.66,2.0,SSE,16.1,-,N/A,,Overcast,160,2013-03-09 10:53:00
5:13 AM,48.2,46.4,93,29.64,1.5,SSE,10.4,19.6,N/A,,Overcast,150,2013-03-09 11:13:00
5:37 AM,48.2,46.4,93,29.63,0.8,SSE,11.5,-,N/A,,Overcast,150,2013-03-09 11:37:00
5:53 AM,48.0,46.9,96,29.64,0.5,SSE,9.2,-,N/A,Fog,Fog,150,2013-03-09 11:53:00
6:53 AM,48.0,48.0,100,29.61,0.2,SE,6.9,-,N/A,Fog,Fog,140,2013-03-09 12:53:00
7:53 AM,48.9,48.9,100,29.61,0.2,SSE,8.1,-,N/A,Fog,Fog,160,2013-03-09 13:53:00
8:41 AM,51.8,51.8,100,29.59,1.5,SSE,8.1,-,N/A,,Overcast,160,2013-03-09 14:41:00
8:50 AM,51.8,51.8,100,29.59,3.0,South,8.1,-,N/A,,Overcast,170,2013-03-09 14:50:00
8:53 AM,52.0,51.1,97,29.58,3.0,South,8.1,-,N/A,,Overcast,170,2013-03-09 14:53:00
9:12 AM,53.6,51.8,94,29.58,6.0,South,10.4,-,N/A,,Overcast,190,2013-03-09 15:12:00
9:53 AM,55.0,52.0,89,29.57,10.0,South,13.8,18.4,N/A,,Mostly Cloudy,170,2013-03-09 15:53:00
10:00 AM,55.4,51.8,88,29.57,10.0,South,13.8,19.6,N/A,,Partly Cloudy,180,2013-03-09 16:00:00
10:53 AM,59.0,51.1,75,29.56,10.0,South,13.8,24.2,N/A,,Scattered Clouds,180,2013-03-09 16:53:00
11:12 AM,60.8,51.8,72,29.58,10.0,South,16.1,25.3,N/A,,Mostly Cloudy,180,2013-03-09 17:12:00
11:53 AM,59.0,48.9,69,29.57,10.0,South,15.0,26.5,N/A,,Overcast,190,2013-03-09 17:53:00
12:38 PM,62.6,50.0,63,29.54,10.0,SSW,10.4,20.7,N/A,,Mostly Cloudy,200,2013-03-09 18:38:00
12:53 PM,61.0,48.9,64,29.53,10.0,South,12.7,21.9,N/A,,Mostly Cloudy,190,2013-03-09 18:53:00
1:53 PM,64.9,48.0,54,29.49,10.0,South,17.3,24.2,N/A,,Mostly Cloudy,180,2013-03-09 19:53:00
2:40 PM,59.0,51.8,77,29.48,6.0,SSE,11.5,-,0.02,Rain-Thunderstorm,Light Rain,150,2013-03-09 20:40:00
2:53 PM,57.0,52.0,83,29.48,2.5,South,13.8,-,0.13,Rain,Heavy Rain,170,2013-03-09 20:53:00
2:58 PM,55.4,51.8,88,29.48,0.8,SW,6.9,18.4,0.16,Rain,Heavy Rain,220,2013-03-09 20:58:00
3:04 PM,53.6,46.4,77,29.49,0.5,NW,24.2,31.1,0.28,Rain-Thunderstorm,Heavy Rain,320,2013-03-09 21:04:00
3:18 PM,42.8,39.2,87,29.50,1.0,NNW,28.8,41.4,0.51,Rain-Thunderstorm,Thunderstorms and Rain,340,2013-03-09 21:18:00
3:24 PM,41.0,39.2,93,29.51,2.0,NNW,25.3,36.8,0.53,Rain-Thunderstorm,Thunderstorms and Rain,340,2013-03-09 21:24:00
3:31 PM,41.0,39.2,93,29.53,2.0,NNW,24.2,34.5,0.59,Rain-Thunderstorm,Heavy Thunderstorms and Rain,340,2013-03-09 21:31:00
3:38 PM,39.2,39.2,100,29.53,1.5,North,24.2,33.4,0.63,Rain-Thunderstorm,Heavy Thunderstorms and Rain,350,2013-03-09 21:38:00
3:44 PM,39.2,39.2,100,29.52,3.0,North,29.9,34.5,0.64,Rain-Thunderstorm,Thunderstorms and Rain,350,2013-03-09 21:44:00
3:53 PM,39.9,37.9,93,29.55,5.0,North,26.5,35.7,0.65,Rain-Thunderstorm,Light Thunderstorms and Rain,350,2013-03-09 21:53:00
4:08 PM,39.2,37.4,93,29.56,10.0,NNW,26.5,36.8,0.00,Rain,Light Rain,340,2013-03-09 22:08:00
4:23 PM,37.4,35.6,93,29.56,1.8,North,31.1,39.1,0.05,Snow,Light Snow,350,2013-03-09 22:23:00
4:31 PM,37.4,35.6,93,29.56,3.0,North,28.8,39.1,0.05,Snow,Light Snow,360,2013-03-09 22:31:00
4:46 PM,37.4,35.6,93,29.57,1.8,North,25.3,34.5,0.11,Snow,Light Snow,360,2013-03-09 22:46:00
4:53 PM,37.0,35.1,93,29.61,2.0,North,31.1,36.8,0.12,Snow,Light Snow,350,2013-03-09 22:53:00
5:03 PM,37.4,35.6,93,29.59,1.2,North,29.9,35.7,0.07,Rain,Rain,360,2013-03-09 23:03:00
5:08 PM,37.4,35.6,93,29.58,3.0,North,24.2,35.7,0.08,Rain,Light Rain,360,2013-03-09 23:08:00
5:19 PM,35.6,35.6,100,29.60,6.0,North,25.3,32.2,0.09,Rain-Thunderstorm,Light Rain,350,2013-03-09 23:19:00
5:28 PM,35.6,33.8,93,29.62,2.5,North,23.0,34.5,0.12,Rain,Heavy Rain,350,2013-03-09 23:28:00
5:40 PM,33.8,33.8,100,29.65,1.5,NNW,26.5,39.1,0.19,Rain,Rain,340,2013-03-09 23:40:00
5:53 PM,34.0,32.0,92,29.65,1.5,North,29.9,38.0,0.24,Rain,Heavy Rain,350,2013-03-09 23:53:00
6:01 PM,33.8,32.0,93,29.63,3.0,North,28.8,40.3,0.00,Snow,Light Snow,350,2013-03-10 00:01:00
6:53 PM,33.1,30.9,92,29.68,10.0,North,31.1,40.3,0.00,,Overcast,350,2013-03-10 00:53:00
7:53 PM,32.0,30.0,92,29.73,10.0,North,25.3,33.4,0.01,,Overcast,360,2013-03-10 01:53:00
8:53 PM,30.9,28.9,92,29.75,10.0,North,27.6,38.0,N/A,,Overcast,360,2013-03-10 02:53:00
9:21 PM,30.2,28.4,93,29.72,10.0,North,28.8,40.3,N/A,,Overcast,360,2013-03-10 03:21:00
9:53 PM,30.9,28.0,89,29.75,9.0,North,25.3,39.1,0.00,,Overcast,360,2013-03-10 03:53:00
10:21 PM,30.2,28.4,93,29.76,7.0,North,26.5,36.8,0.00,,Overcast,360,2013-03-10 04:21:00
10:53 PM,30.9,28.0,89,29.78,8.0,North,26.5,36.8,0.00,,Overcast,360,2013-03-10 04:53:00
11:53 PM,30.0,28.0,92,29.78,5.0,North,26.5,38.0,N/A,,Overcast,360,2013-03-10 05:53:00